星链-3668 (STARLINK-3668 )

导读

STARLINK-3668是美国SpaceX公司星链(Starlink)项目的低轨通信卫星,于北京时间2022年3月9日发射入轨,属于星链v1.5批次卫星。 它运行在约540公里近地轨道,具备改进推进与通信能力,作为全球星链星座的组成部分,主要为全球用户提供高速卫星互联网接入服务,支持偏远地区宽带覆盖,增强整个星座的网络冗余与连接稳定性,目前仍在轨运行。

Basic Information
目录编号:
52002
目录名称:
STARLINK-3668
国际标识:
2022-025AY
轨道中心:
EARTH
卫星名称:
星链-3668
卫星全名:
星链-3668 (STARLINK-3668 )
卫星状态:
在轨 (已飞行1640 天)
发射日期:
2022-03-09 UTC
国别 :
美国 (US)
星等 :
--
Orbit Information
数据来源 国际轨道数据
星历时间: 2026-09-03T20:34:58+0800
15小时前
查看轨道信息
半长轴: 6837.873km
偏心率: 0.0001059
轨道倾角: 53.160°
近地点辐角 89.950°
升交点赤经 292.996°
平近点角 270.163°
近地点: 459.011km
远地点: 460.461km
周期: 93.787分钟
每日圈数: 15.353992
Detailed Information
固有亮度:
5
最大亮度:
2.5
卫星平台:
Starlink v1.5
覆盖范围:
全球
运营商:
太空探索技术公司
运营商所在国:
美国
制造商(研发单位):
太空探索技术公司
制造商所在国:
美国
使用方式:
暂无
Satellite Introduction
星链(Starlink)计划是由太空探索技术公司(SpaceX)提出的一个巨型低轨卫星互联网星座项目,计划在2019年至2024年间在太空搭建由约1.2万颗卫星组成的“星链”网络,其中1584颗将部署在地球上空550千米处的近地轨道,并从2020年开始工作。该卫星仍在工作。
2D Orbit Map
3D Orbit Map
Orbit Altitude Analysis Chart
Orbit Inclination Analysis Chart
Orbit Comprehensive Analysis Chart
View Comprehensive Chart
Conjunction Data List
Event ID Objects TCA Miss Dist (km) Collision Risk Probability Collision Risk Index (CRI) Action
CDM_260902-091705-200206-297021
2026-09-02T
09:17:04+0000
2.591 km
极远距离
1.470405E-6 低风险 0.38
CDM_260905-125105-200206-808321
2026-09-05T
12:51:54+0000
2.966 km
极远距离
1.166425E-6 低风险 0.36
CDM_260904-083605-200206-449321
2026-09-04T
08:36:13+0000
2.900 km
极远距离
9.289831E-7 极低风险 0.34